sat.trackr.live / text

‹ back to catalog

STARLINK-31744

NORAD 59494 · 2024-071L

PAYLOAD ACTIVE UNKNOWN

§ Identity

Operator
Country
US
Launch date
2024-04-13
Launch site
AFETR
Launch vehicle
Mass (kg)
RCS (m²)

Purposes: comms

External: N2YO · Heavens-Above · Gunter

§ Orbital elements

Epoch: 2026-09-21T10:25:56.100576Z

Period
94.27 min
Inclination
43.0024°
Eccentricity
0.0001324
Mean motion
15.27575924 rev/d
Perigee alt
482.2 km
Apogee alt
484.0 km
Semi-major
6,861.2 km
B*
5.4833e-6
RAAN
321.9426°
Arg perigee
269.8872°
Mean anomaly
90.1828°
Rev number
13,805

§ Raw data

STARLINK-317441 59494U 24071L   26264.43467709 -.00000111  00000+0  54833-5 0  99962 59494  43.0024 321.9426 0001324 269.8872  90.1828 15.27575924138057

JSON: /api/v1/satellites/59494 · /tle

For live sub-satellite position, see the globe view (requires WebGL).

§ Visibility from observer

Set your observer location to see the next 7 days of passes ≥ 10°. The values pass through the URL so the page stays shareable.

No JS? Fill the form by hand. The geolocation button needs JavaScript.